OPS 7350

导读

OPS 7350是美国于1981年3月16日8时发射的军用侦查卫星,隶属于美国国家 Reconnaissance Office(国家侦察局),采用OPS保密项目代号体系,属于美国冷战时期军事航天部署的一部分。 该卫星延续了美国早年 Atlas-Agena D火箭的发射体系,执行空间情报收集任务,服务于美苏争霸时期的战略侦查需求,是美国冷战空间军事体系建设的典型节点。作为已退役的早期军事卫星,它见证了美国军用航天技术发展的早期历程。

Basic Information
目录编号:
12339
目录名称:
OPS 7350
国际标识:
1981-025A
轨道中心:
EARTH
卫星名称:
OPS 7350
卫星全名:
--
卫星状态:
在轨 (已飞行16618 天)
发射日期:
1981-03-16 UTC
国别 :
美国 (US)
星等 :
--
This satellite is enrolled in the Space Conjunction Data Service (SCDS) and the current flight risk assessment level is: No High Risk
Orbit Information
数据来源 国际轨道数据 AOE轨道数据
星历时间 2026-09-14T08:39:33+0800
7小时前
查看轨道信息
2026-09-13T00:00:00+0800
1天前
查看轨道信息
半长轴 42574.455km 42574.426km
偏心率 0.002012 0.0020112
轨道倾角 7.912° 7.915°
近地点辐角 292.429° 292.261°
升交点赤经 304.466° 304.475°
平近点角 239.926° 115.928°
近地点 36110.658km 36110.663km
远地点 36281.978km 36281.915km
周期 1457.080分钟 1457.078分钟
每日圈数 0.988278 0.988279
Detailed Information
使用方式:
暂无
2D Orbit Map
3D Orbit Map
Orbit Altitude Analysis Chart
Orbit Inclination Analysis Chart
Orbit Comprehensive Analysis Chart
View Comprehensive Chart
Miss Distance Evolution Trend with All Objects Subscribe to Flight Safety Assessment
Collision Probability Evolution Trend with All Objects Subscribe to Flight Safety Assessment